Vertical_Velocity
6 -0 3 3 1 2 -0 -1 -0 -0 2 -1 -2 1 -1 1 -1 0 -0 1 -2 1
3 1 2 4 3 5 3 0 -0 1 0 0 1 0 1 2 -0 0 0 -1 -2 1
-1 2 2 2 3 1 1 2 0 2 2 2 1 2 1 -2 -2 -1 -1 1 -2 2
-0 3 3 3 5 3 1 1 1 0 0 5 3 -1 -1 2 -6 -2 -1 2 0 0
4 3 2 1 1 3 2 2 4 0 -0 2 2 0 -2 -1 1 2 1 -0 1 -2
-1 -1 1 1 2 3 1 -1 0 4 2 1 -1 -3 -2 -0 -2 -4 -2 -1 -1 0
-3 -1 -4 -5 -1 -3 -1 -2 -3 -3 -1 5 5 2 4 -1 0 0 -1 -1 -2 -1
-1 -0 -0 1 -0 0 1 0 2 1 1 -1 1 1 3 3 1 3 1 2 3 3
-0 2 -0 -1 -1 0 1 2 1 1 1 2 4 4 3 3 2 2 3 2 1 1
-2 -1 -0 1 2 3 3 3 3 2 2 2 3 3 3 2 3 4 7 1 -0 1
-1 -0 -1 -0 2 3 3 3 3 3 3 2 2 2 2 0 9 3 -1 -1 1 1
-2 -1 -2 -1 -0 0 2 1 1 3 2 2 2 0 1 -1 5 5 0 6 3 -0
-2 -1 -2 -2 -0 -1 -2 -0 2 2 2 1 2 2 1 1 -1 -1 4 -3 -2 -2
-0 2 -0 -0 0 -2 1 1 -1 -1 -1 1 -1 1 1 -0 -1 -0 0 0 -0 -2
Height
5614 5617 5617 5619 5622 5624 5626 5628 5631 5633 5635 5637 5640 5644 5647 5648 5650 5652 5654 5655 5656 5657
5598 5600 5603 5604 5605 5608 5610 5612 5614 5617 5619 5622 5624 5626 5629 5631 5633 5635 5636 5638 5639 5640
5581 5584 5586 5589 5591 5592 5594 5596 5598 5600 5602 5606 5608 5610 5613 5613 5615 5617 5619 5620 5622 5624
5563 5567 5568 5571 5573 5576 5577 5579 5581 5583 5585 5587 5589 5591 5594 5597 5597 5600 5601 5604 5605 5607
5547 5549 5551 5552 5554 5556 5559 5561 5564 5566 5567 5569 5570 5572 5575 5578 5579 5583 5584 5586 5589 5590
5529 5531 5533 5535 5537 5539 5541 5543 5545 5548 5549 5552 5554 5556 5559 5561 5562 5565 5567 5568 5570 5572
5511 5513 5515 5518 5519 5521 5523 5525 5527 5529 5531 5535 5537 5539 5542 5543 5545 5548 5549 5550 5552 5553
5490 5491 5493 5496 5498 5501 5503 5505 5508 5511 5513 5515 5518 5521 5523 5525 5528 5531 5533 5535 5536 5538
5472 5473 5475 5477 5479 5481 5484 5486 5489 5491 5494 5497 5499 5502 5505 5508 5511 5514 5516 5518 5519 5520
5453 5455 5456 5458 5460 5463 5465 5468 5470 5473 5476 5479 5481 5484 5487 5489 5492 5495 5498 5499 5501 5503
5436 5437 5439 5440 5442 5443 5445 5448 5451 5453 5456 5459 5462 5464 5467 5472 5476 5476 5479 5481 5483 5485
5422 5422 5423 5424 5425 5426 5428 5430 5432 5435 5437 5440 5443 5446 5449 5453 5457 5458 5462 5464 5466 5468
5410 5410 5411 5411 5411 5412 5414 5415 5417 5419 5422 5426 5428 5430 5433 5436 5439 5443 5446 5448 5449 5451
5398 5398 5399 5399 5398 5399 5400 5402 5404 5406 5409 5413 5415 5417 5420 5423 5425 5427 5430 5432 5434 5435